Weather History for Warsaw, IN

Change the Weather History Date:

Sunday, November 21, 2010

  Actual Average Record
Temperature  
Mean Temperature 50 °F -  
Max Temperature 60 °F 43 °F 68 °F (1990)
Min Temperature 40 °F 29 °F 9 °F (1964)
Degree Days  
Heating Degree Days 15    
Moisture  
Dew Point 47 °F    
Average Humidity 88    
Maximum Humidity 97    
Minimum Humidity 75    
Precipitation  
Precipitation 0.03 in - - ()
Sea Level Pressure  
Sea Level Pressure 30.06 in    
Wind  
Wind Speed 9 mph (South)    
Max Wind Speed 14 mph    
Max Gust Speed 23 mph    
Visibility 4 miles    
Events Rain    
Averages and records for this station are not official NWS values.
T = Trace of Precipitation, MM = Missing Value Source: NWS Daily Summary

Daily Weather History Graph

Daily Weather History Graph

Search for Another Location

Airport:

Trip Planner

Search our weather history database for the weather conditions in past years. The results will help you decide how hot, cold, wet, or windy it might be!

Date:

Astronomy

Nov. 21, 2010 Rise Set
Actual Time 7:38 AM EST 5:19 PM EST
Civil Twilight 7:08 AM EST 5:49 PM EST
Nautical Twilight 6:34 AM EST 6:23 PM EST
Astronomical Twilight 6:01 AM EST 6:56 PM EST
Moon 5:08 PM EST (11/21) 7:40 AM EST (11/21)
Length of Visible Light 10h 41m
Length of Day
9h 41m
Full, 100% of the Moon is Illuminated
Nov 21
Full
Nov 21
Full
Nov 28
Last Quarter
Dec 5
New
Dec 13
First Quarter

Hourly Weather History & Observations

Time (EST) Temp. Windchill Dew Point Humidity Pressure Visibility Wind Dir Wind Speed Gust Speed Precip Events Conditions
12:09 AM 42.4 °F 37.5 °F 39.6 °F 90% 30.22 in 3.0 mi ESE 8.1 mph - N/A   Overcast
12:29 AM 41.9 °F 36.9 °F 39.2 °F 90% 30.22 in 3.0 mi ESE 8.1 mph - N/A   Overcast
12:49 AM 41.9 °F 35.4 °F 39.4 °F 91% 30.21 in 2.5 mi SE 11.5 mph - N/A   Overcast
1:09 AM 41.5 °F 35.9 °F 39.4 °F 92% 30.20 in 2.5 mi SE 9.2 mph - N/A   Overcast
1:29 AM 41.5 °F 35.9 °F 39.6 °F 93% 30.21 in 2.5 mi SE 9.2 mph - N/A   Overcast
1:49 AM 41.4 °F 35.7 °F 39.6 °F 93% 30.21 in 2.5 mi SE 9.2 mph - N/A   Overcast
2:09 AM 41.4 °F 35.7 °F 39.7 °F 94% 30.19 in 2.5 mi ESE 9.2 mph - N/A   Overcast
2:29 AM 41.4 °F 35.7 °F 40.1 °F 95% 30.20 in 2.0 mi ESE 9.2 mph - N/A   Overcast
2:49 AM 41.4 °F 35.7 °F 40.1 °F 95% 30.20 in 2.0 mi ESE 9.2 mph - N/A   Overcast
3:09 AM 41.5 °F 34.6 °F 40.1 °F 95% 30.19 in 2.0 mi SE 12.7 mph 16.1 mph N/A   Overcast
3:29 AM 41.9 °F 36.3 °F 40.3 °F 94% 30.19 in 2.0 mi SE 9.2 mph - N/A   Overcast
3:49 AM 41.9 °F 35.9 °F 40.3 °F 94% 30.18 in 2.0 mi ESE 10.4 mph - N/A   Overcast
4:09 AM 41.9 °F 35.9 °F 40.3 °F 94% 30.18 in 2.0 mi ESE 10.4 mph 16.1 mph N/A   Overcast
4:49 AM 41.9 °F 35.9 °F 40.1 °F 93% 30.17 in 2.0 mi ESE 10.4 mph - N/A   Overcast
5:29 AM 41.9 °F 36.3 °F 39.6 °F 91% 30.16 in 2.5 mi ESE 9.2 mph - N/A   Overcast
5:49 AM 41.4 °F 36.2 °F 39.4 °F 93% 30.16 in 2.5 mi ESE 8.1 mph 17.3 mph N/A   Overcast
6:09 AM 41.0 °F 35.8 °F 39.2 °F 93% 30.15 in 2.0 mi ESE 8.1 mph 18.4 mph N/A   Overcast
6:29 AM 41.0 °F 34.7 °F 39.2 °F 93% 30.13 in 2.0 mi ESE 10.4 mph - N/A   Overcast
6:49 AM 40.5 °F 34.1 °F 39.2 °F 95% 30.12 in 2.0 mi SE 10.4 mph - N/A   Overcast
7:09 AM 40.5 °F 34.1 °F 39.6 °F 97% 30.12 in 1.5 mi SE 10.4 mph 16.1 mph N/A   Overcast
7:29 AM 40.6 °F 35.4 °F 39.9 °F 97% 30.13 in 1.5 mi SE 8.1 mph - N/A   Overcast
7:49 AM 41.0 °F 36.4 °F 40.3 °F 97% 30.12 in 1.5 mi SE 6.9 mph - N/A   Overcast
8:09 AM 41.9 °F 36.9 °F 41.0 °F 97% 30.12 in 1.0 mi SE 8.1 mph - N/A   Overcast
8:29 AM 42.3 °F 38.6 °F 41.2 °F 96% 30.12 in 1.0 mi SE 5.8 mph - N/A   Overcast
8:49 AM 43.0 °F 37.7 °F 41.7 °F 95% 30.11 in 1.2 mi SE 9.2 mph - N/A   Overcast
9:29 AM 44.6 °F 40.7 °F 42.3 °F 91% 30.09 in 2.0 mi SE 6.9 mph - N/A   Mostly Cloudy
9:49 AM 46.4 °F 44.3 °F 43.0 °F 88% 30.09 in 2.5 mi South 4.6 mph - N/A   Overcast
10:29 AM 49.6 °F - 44.8 °F 83% 30.08 in 4.0 mi South 9.2 mph 18.4 mph N/A   Haze
11:09 AM 50.4 °F - 45.5 °F 83% 30.08 in 5.0 mi South 6.9 mph - N/A   Overcast
11:29 AM 50.0 °F - 46.4 °F 87% 30.07 in 2.5 mi South 3.5 mph - N/A Rain Rain
11:49 AM 50.4 °F - 48.2 °F 92% 30.07 in 2.5 mi SSW 6.9 mph - N/A   Light Drizzle
12:09 PM 51.4 °F - 48.2 °F 89% 30.06 in 4.0 mi SSW 5.8 mph - N/A   Overcast
12:29 PM 52.3 °F - 48.2 °F 86% 30.05 in 5.0 mi SSW 4.6 mph - N/A   Overcast
1:29 PM 54.1 °F - 48.6 °F 81% 30.03 in 5.0 mi SSW 8.1 mph - N/A   Haze
1:49 PM 55.6 °F - 49.1 °F 79% 30.01 in 7.0 mi SSW 10.4 mph 17.3 mph N/A   Overcast
2:09 PM 56.3 °F - 49.3 °F 77% 30.00 in 7.0 mi SSW 8.1 mph 16.1 mph N/A   Overcast
2:29 PM 56.3 °F - 49.5 °F 78% 30.00 in 7.0 mi South 10.4 mph 18.4 mph N/A   Overcast
2:45 PM 56.8 °F - 49.6 °F 77% 29.98 in 7.0 mi South 6.9 mph 17.3 mph N/A   Overcast
3:05 PM 57.2 °F - 50.0 °F 77% 29.99 in 7.0 mi South 8.1 mph - N/A   Overcast
3:25 PM 57.2 °F - 50.0 °F 77% 29.99 in 7.0 mi SSW 11.5 mph 17.3 mph N/A   Overcast
3:45 PM 57.2 °F - 50.0 °F 77% 29.98 in 7.0 mi South 9.2 mph 16.1 mph N/A   Overcast
4:05 PM 57.2 °F - 50.0 °F 77% 29.98 in 10.0 mi SSW 9.2 mph 17.3 mph N/A   Overcast
4:25 PM 57.2 °F - 49.5 °F 75% 29.97 in 10.0 mi South 8.1 mph - N/A   Overcast
4:45 PM 57.2 °F - 49.5 °F 75% 29.95 in 7.0 mi South 9.2 mph - N/A   Overcast
5:25 PM 56.7 °F - 49.6 °F 77% 29.96 in 10.0 mi SSW 5.8 mph - N/A   Overcast
5:45 PM 57.0 °F - 49.6 °F 76% 29.96 in 10.0 mi SSW 6.9 mph - N/A   Overcast
6:25 PM 57.6 °F - 50.0 °F 76% 29.96 in 10.0 mi South 4.6 mph - N/A   Overcast
6:45 PM 58.1 °F - 50.5 °F 76% 29.95 in 10.0 mi South 4.6 mph - N/A   Overcast
7:05 PM 59.9 °F - 52.7 °F 77% 29.95 in 10.0 mi SSW 13.8 mph 23.0 mph N/A   Overcast
7:25 PM 60.1 °F - 53.8 °F 80% 29.95 in 7.0 mi SSW 10.4 mph 19.6 mph N/A Rain Rain
7:45 PM 59.0 °F - 54.5 °F 85% 29.95 in 5.0 mi SSW 10.4 mph 19.6 mph N/A Rain Rain
8:05 PM 58.6 °F - 54.9 °F 87% 29.96 in 5.0 mi SW 10.4 mph 17.3 mph N/A Rain Light Rain
8:25 PM 58.6 °F - 55.0 °F 88% 29.96 in 5.0 mi SSW 10.4 mph 17.3 mph N/A Rain Heavy Rain
8:45 PM 58.1 °F - 55.4 °F 91% 29.97 in 4.0 mi SSW 6.9 mph 16.1 mph N/A Rain Rain
9:05 PM 57.7 °F - 55.6 °F 92% 29.97 in 4.0 mi SSW 8.1 mph - N/A   Drizzle
9:25 PM 57.7 °F - 55.6 °F 92% 29.97 in 4.0 mi SSW 5.8 mph - N/A   Drizzle
9:45 PM 57.7 °F - 55.8 °F 93% 29.97 in 4.0 mi SSW 5.8 mph - 0.01 in   Drizzle
10:05 PM 57.7 °F - 55.8 °F 93% 29.97 in 4.0 mi SSW 8.1 mph - N/A   Drizzle
10:25 PM 57.7 °F - 55.8 °F 93% 29.97 in 4.0 mi SSW 6.9 mph - N/A Rain Light Rain
10:45 PM 57.9 °F - 55.8 °F 92% 29.98 in 4.0 mi SSW 5.8 mph - N/A Rain Light Rain
11:05 PM 58.1 °F - 56.3 °F 94% 29.97 in 4.0 mi SSW 9.2 mph - N/A Rain Light Rain
11:25 PM 58.1 °F - 56.3 °F 94% 29.97 in 2.5 mi SSW 5.8 mph - 0.01 in Rain Rain
11:45 PM 57.6 °F - 56.3 °F 96% 29.97 in 2.5 mi SSW 4.6 mph - 0.02 in Rain Heavy Rain